Time,TemperatureF,DewpointF,PressureIn,WindDirection,WindDirectionDegrees,WindSpeedMPH,WindSpeedGustMPH,Humidity,HourlyPrecipIn,Conditions,Clouds,dailyrainin,SoftwareType,DateUTC
2013-02-27 00:00:00,43.0,-99.9,-100.00,North,-999,-999.0,-999.0,-999,0.00,,,0.24,,2013-02-27 05:00:00,
2013-02-27 00:42:00,43.0,-99.9,-100.00,North,-999,-999.0,-999.0,-999,0.00,,,0.24,,2013-02-27 05:42:00,
2013-02-27 00:52:00,43.0,-99.9,-100.00,North,-999,-999.0,-999.0,-999,0.00,,,0.24,,2013-02-27 05:52:00,
2013-02-27 01:00:00,43.0,-99.9,-100.00,North,-999,-999.0,-999.0,-999,0.00,,,0.24,,2013-02-27 06:00:00,
2013-02-27 01:33:00,43.0,-99.9,-100.00,North,-999,-999.0,-999.0,-999,0.00,,,0.24,,2013-02-27 06:33:00,
2013-02-27 01:42:00,43.0,-99.9,-100.00,North,-999,-999.0,-999.0,-999,0.00,,,0.24,,2013-02-27 06:42:00,
2013-02-27 01:52:00,43.0,-99.9,-100.00,North,-999,-999.0,-999.0,-999,0.00,,,0.24,,2013-02-27 06:52:00,
2013-02-27 02:00:00,41.0,-99.9,-100.00,North,-999,-999.0,-999.0,-999,0.00,,,0.24,,2013-02-27 07:00:00,
2013-02-27 02:42:00,41.0,-99.9,-100.00,North,-999,-999.0,-999.0,-999,0.00,,,0.24,,2013-02-27 07:42:00,
2013-02-27 02:52:00,41.0,-99.9,-100.00,North,-999,-999.0,-999.0,-999,0.00,,,0.24,,2013-02-27 07:52:00,
2013-02-27 03:00:00,40.0,-99.9,-100.00,North,-999,-999.0,-999.0,-999,0.00,,,0.24,,2013-02-27 08:00:00,
2013-02-27 03:42:00,40.0,-99.9,-100.00,North,-999,-999.0,-999.0,-999,0.00,,,0.24,,2013-02-27 08:42:00,
2013-02-27 03:53:00,40.0,-99.9,-100.00,North,-999,-999.0,-999.0,-999,0.00,,,0.24,,2013-02-27 08:53:00,
2013-02-27 04:00:00,39.0,-99.9,-100.00,North,-999,-999.0,-999.0,-999,0.02,,,0.26,,2013-02-27 09:00:00,
2013-02-27 04:42:00,39.0,-99.9,-100.00,North,-999,-999.0,-999.0,-999,0.02,,,0.26,,2013-02-27 09:42:00,
2013-02-27 04:52:00,39.0,-99.9,-100.00,North,-999,-999.0,-999.0,-999,0.02,,,0.26,,2013-02-27 09:52:00,
2013-02-27 05:00:00,41.0,-99.9,-100.00,North,-999,-999.0,-999.0,-999,0.01,,,0.27,,2013-02-27 10:00:00,
2013-02-27 05:42:00,41.0,-99.9,-100.00,North,-999,-999.0,-999.0,-999,0.01,,,0.27,,2013-02-27 10:42:00,
2013-02-27 05:53:00,41.0,-99.9,-100.00,North,-999,-999.0,-999.0,-999,0.01,,,0.27,,2013-02-27 10:53:00,
2013-02-27 06:00:00,41.0,-99.9,-100.00,North,-999,-999.0,-999.0,-999,0.05,,,0.32,,2013-02-27 11:00:00,
2013-02-27 06:42:00,41.0,-99.9,-100.00,North,-999,-999.0,-999.0,-999,0.05,,,0.32,,2013-02-27 11:42:00,
2013-02-27 06:52:00,41.0,-99.9,-100.00,North,-999,-999.0,-999.0,-999,0.05,,,0.32,,2013-02-27 11:52:00,
2013-02-27 07:00:00,40.0,-99.9,-100.00,North,-999,-999.0,-999.0,-999,0.02,,,0.34,,2013-02-27 12:00:00,
2013-02-27 07:42:00,40.0,-99.9,-100.00,North,-999,-999.0,-999.0,-999,0.02,,,0.34,,2013-02-27 12:42:00,
2013-02-27 08:42:00,43.0,-99.9,-100.00,North,-999,-999.0,-999.0,-999,0.00,,,0.34,,2013-02-27 13:42:00,
2013-02-27 09:00:00,42.0,-99.9,-100.00,North,-999,-999.0,-999.0,-999,0.00,,,0.34,,2013-02-27 14:00:00,
2013-02-27 09:42:00,42.0,-99.9,-100.00,North,-999,-999.0,-999.0,-999,0.00,,,0.34,,2013-02-27 14:42:00,
2013-02-27 09:53:00,42.0,-99.9,-100.00,North,-999,-999.0,-999.0,-999,0.00,,,0.34,,2013-02-27 14:53:00,
2013-02-27 10:00:00,43.0,-99.9,-100.00,North,-999,-999.0,-999.0,-999,0.00,,,0.34,,2013-02-27 15:00:00,
2013-02-27 10:42:00,43.0,-99.9,-100.00,North,-999,-999.0,-999.0,-999,0.00,,,0.34,,2013-02-27 15:42:00,
2013-02-27 10:53:00,43.0,-99.9,-100.00,North,-999,-999.0,-999.0,-999,0.00,,,0.34,,2013-02-27 15:53:00,
2013-02-27 11:00:00,45.0,-99.9,-100.00,North,-999,-999.0,-999.0,-999,0.00,,,0.34,,2013-02-27 16:00:00,
2013-02-27 11:42:00,45.0,-99.9,-100.00,North,-999,-999.0,-999.0,-999,0.00,,,0.34,,2013-02-27 16:42:00,
2013-02-27 11:53:00,45.0,-99.9,-100.00,North,-999,-999.0,-999.0,-999,0.00,,,0.34,,2013-02-27 16:53:00,
2013-02-27 12:00:00,45.0,-99.9,-100.00,North,-999,-999.0,-999.0,-999,0.00,,,0.34,,2013-02-27 17:00:00,
2013-02-27 12:42:00,45.0,-99.9,-100.00,North,-999,-999.0,-999.0,-999,0.00,,,0.34,,2013-02-27 17:42:00,
2013-02-27 12:52:00,45.0,-99.9,-100.00,North,-999,-999.0,-999.0,-999,0.00,,,0.34,,2013-02-27 17:52:00,
2013-02-27 13:00:00,45.0,-99.9,-100.00,North,-999,-999.0,-999.0,-999,0.00,,,0.33,,2013-02-27 18:00:00,
2013-02-27 13:42:00,45.0,-99.9,-100.00,North,-999,-999.0,-999.0,-999,0.00,,,0.33,,2013-02-27 18:42:00,
2013-02-27 14:00:00,43.0,-99.9,-100.00,North,-999,-999.0,-999.0,-999,0.01,,,0.30,,2013-02-27 19:00:00,
2013-02-27 14:53:00,43.0,-99.9,-100.00,North,-999,-999.0,-999.0,-999,0.01,,,0.30,,2013-02-27 19:53:00,
2013-02-27 15:00:00,40.0,-99.9,-100.00,North,-999,-999.0,-999.0,-999,0.01,,,-99.99,,2013-02-27 20:00:00,
2013-02-27 15:42:00,40.0,-99.9,-100.00,North,-999,-999.0,-999.0,-999,0.01,,,-99.99,,2013-02-27 20:42:00,
2013-02-27 16:00:00,43.0,-99.9,-100.00,North,-999,-999.0,-999.0,-999,0.00,,,0.21,,2013-02-27 21:00:00,
2013-02-27 16:42:00,43.0,-99.9,-100.00,North,-999,-999.0,-999.0,-999,0.00,,,0.21,,2013-02-27 21:42:00,
2013-02-27 16:52:00,43.0,-99.9,-100.00,North,-999,-999.0,-999.0,-999,0.00,,,0.21,,2013-02-27 21:52:00,
2013-02-27 17:00:00,41.0,-99.9,-100.00,North,-999,-999.0,-999.0,-999,0.00,,,0.21,,2013-02-27 22:00:00,
2013-02-27 17:42:00,41.0,-99.9,-100.00,North,-999,-999.0,-999.0,-999,0.00,,,0.21,,2013-02-27 22:42:00,
2013-02-27 17:52:00,41.0,-99.9,-100.00,North,-999,-999.0,-999.0,-999,0.00,,,0.21,,2013-02-27 22:52:00,
2013-02-27 18:00:00,41.0,-99.9,-100.00,North,-999,-999.0,-999.0,-999,0.01,,,0.16,,2013-02-27 23:00:00,
2013-02-27 18:43:00,41.0,-99.9,-100.00,North,-999,-999.0,-999.0,-999,0.01,,,0.16,,2013-02-27 23:43:00,
2013-02-27 18:53:00,41.0,-99.9,-100.00,North,-999,-999.0,-999.0,-999,0.01,,,0.16,,2013-02-27 23:53:00,
2013-02-27 19:00:00,39.0,-99.9,-100.00,North,-999,-999.0,-999.0,-999,0.01,,,0.14,,2013-02-28 00:00:00,
2013-02-27 19:42:00,39.0,-99.9,-100.00,North,-999,-999.0,-999.0,-999,0.01,,,0.14,,2013-02-28 00:42:00,
2013-02-27 19:52:00,39.0,-99.9,-100.00,North,-999,-999.0,-999.0,-999,0.01,,,0.14,,2013-02-28 00:52:00,
2013-02-27 20:00:00,40.0,-99.9,-100.00,North,-999,-999.0,-999.0,-999,0.01,,,0.15,,2013-02-28 01:00:00,
2013-02-27 20:42:00,40.0,-99.9,-100.00,North,-999,-999.0,-999.0,-999,0.01,,,0.15,,2013-02-28 01:42:00,
2013-02-27 20:52:00,40.0,-99.9,-100.00,North,-999,-999.0,-999.0,-999,0.01,,,0.15,,2013-02-28 01:52:00,
2013-02-27 21:00:00,40.0,-99.9,-100.00,North,-999,-999.0,-999.0,-999,0.00,,,0.15,,2013-02-28 02:00:00,
2013-02-27 22:00:00,36.0,-99.9,-100.00,North,-999,-999.0,-999.0,-999,0.01,,,0.16,,2013-02-28 03:00:00,
2013-02-27 22:32:00,36.0,-99.9,-100.00,North,-999,-999.0,-999.0,-999,0.01,,,0.16,,2013-02-28 03:32:00,
2013-02-27 22:42:00,36.0,-99.9,-100.00,North,-999,-999.0,-999.0,-999,0.01,,,0.16,,2013-02-28 03:42:00,
2013-02-27 22:52:00,36.0,-99.9,-100.00,North,-999,-999.0,-999.0,-999,0.01,,,0.16,,2013-02-28 03:52:00,
2013-02-27 23:00:00,34.0,-99.9,-100.00,North,-999,-999.0,-999.0,-999,0.07,,,0.23,,2013-02-28 04:00:00,
2013-02-27 23:32:00,34.0,-99.9,-100.00,North,-999,-999.0,-999.0,-999,0.07,,,0.23,,2013-02-28 04:32:00,
2013-02-27 23:42:00,34.0,-99.9,-100.00,North,-999,-999.0,-999.0,-999,0.07,,,0.23,,2013-02-28 04:42:00,
2013-02-27 23:52:00,34.0,-99.9,-100.00,North,-999,-999.0,-999.0,-999,0.07,,,0.23,,2013-02-28 04:52:00,